Johnstown, PA

11:47 PM EDT on April 24, 2018 (GMT -0400)
Johnstown-Cambria County

Weather History for KJST - August, 2012

Change the Weather History Date:

Thursday, August 30, 2012

  Actual Average Record
Temperature  
Mean Temperature 64 °F 66 °F  
Max Temperature 78 °F 74 °F 97 °F (1953)
Min Temperature 51 °F 58 °F 38 °F (1986)
Degree Days  
Heating Degree Days 1 2  
Month to date heating degree days 28  
Since 1 June heating degree days 115  
Since 1 July heating degree days 41  
Cooling Degree Days 0 2  
Month to date cooling degree days 115  
Year to date cooling degree days 358  
Since 1 June cooling degree days 340  
Growing Degree Days 14 (Base 50)    
Moisture  
Dew Point 50 °F    
Average Humidity 62    
Maximum Humidity 89    
Minimum Humidity 31    
Precipitation  
Precipitation 0.00 in 0.11 in 2.23 in (1932)
Month to date precipitation 3.70  
Year to date precipitation 24.19  
Sea Level Pressure  
Sea Level Pressure 30.14 in    
Wind  
Wind Speed 3 mph (SW)    
Max Wind Speed 7 mph    
Max Gust Speed -    
Visibility 10 miles    
Events      
T = Trace of Precipitation, MM = Missing Value Source: NWS Daily Summary

Daily Weather History Graph

Daily Weather History Graph

Search for Another Location

Airport or City:

Astronomy

Aug. 30, 2012 Rise Set
Actual Time 6:41 AM EDT 7:49 PM EDT
Civil Twilight 6:13 AM EDT 8:17 PM EDT
Nautical Twilight 5:39 AM EDT 8:50 PM EDT
Astronomical Twilight 5:04 AM EDT 9:25 PM EDT
Moon 7:02 PM EDT (8/30) 5:40 AM EDT (8/30)
Length of Visible Light 14h 04m
Length of Day
13h 08m
Waxing Gibbous, 99% of the Moon is Illuminated
Aug 30
Waxing Gibbous
Aug 31
Full
Sep 8
Last Quarter
Sep 15
New
Sep 22
First Quarter

Hourly Weather History & Observations

Time (EDT) Temp. Dew Point Humidity Pressure Visibility Wind Dir Wind Speed Gust Speed Precip Events Conditions
12:54 AM 60.1 °F 50.0 °F 69% 30.10 in 10.0 mi Calm Calm - N/A   Clear
1:54 AM 55.9 °F 50.0 °F 80% 30.11 in 10.0 mi WNW 4.6 mph - N/A   Clear
2:54 AM 55.9 °F 50.0 °F 80% 30.09 in 10.0 mi SSE 3.5 mph - N/A   Clear
3:54 AM 53.1 °F 50.0 °F 89% 30.09 in 10.0 mi South 4.6 mph - N/A   Clear
4:54 AM 53.1 °F 48.9 °F 86% 30.11 in 10.0 mi WSW 4.6 mph - N/A   Clear
5:54 AM 51.1 °F 48.0 °F 89% 30.12 in 10.0 mi SW 4.6 mph - N/A   Clear
6:54 AM 52.0 °F 48.9 °F 89% 30.14 in 10.0 mi SW 4.6 mph - N/A   Clear
7:54 AM 55.0 °F 51.1 °F 86% 30.15 in 10.0 mi SW 3.5 mph - N/A   Clear
8:54 AM 59.0 °F 52.0 °F 78% 30.16 in 10.0 mi SSW 3.5 mph - N/A   Clear
9:54 AM 63.0 °F 52.0 °F 67% 30.17 in 10.0 mi SW 3.5 mph - N/A   Clear
10:54 AM 66.0 °F 48.9 °F 54% 30.17 in 10.0 mi WSW 3.5 mph - N/A   Clear
11:54 AM 68.0 °F 50.0 °F 52% 30.18 in 10.0 mi Variable 3.5 mph - N/A   Clear
12:54 PM 72.0 °F 48.9 °F 44% 30.17 in 10.0 mi Variable 4.6 mph - N/A   Clear
1:54 PM 73.9 °F 48.0 °F 40% 30.17 in 10.0 mi Variable 4.6 mph - N/A   Clear
2:54 PM 75.9 °F 46.0 °F 35% 30.14 in 10.0 mi WSW 5.8 mph - N/A   Clear
3:54 PM 77.0 °F 45.0 °F 32% 30.14 in 10.0 mi Variable 3.5 mph - N/A   Clear
4:54 PM 77.0 °F 44.1 °F 31% 30.13 in 10.0 mi NW 3.5 mph - N/A   Clear
5:54 PM 77.0 °F 45.0 °F 32% 30.13 in 10.0 mi Calm Calm - N/A   Clear
6:54 PM 75.9 °F 46.9 °F 36% 30.13 in 10.0 mi Calm Calm - N/A   Clear
7:54 PM 70.0 °F 50.0 °F 49% 30.14 in 10.0 mi SSE 4.6 mph - N/A   Clear
8:54 PM 66.0 °F 55.0 °F 68% 30.15 in 10.0 mi SSE 5.8 mph - N/A   Clear
9:54 PM 66.9 °F 54.0 °F 63% 30.16 in 10.0 mi SSW 4.6 mph - N/A   Clear
10:54 PM 64.9 °F 54.0 °F 68% 30.15 in 10.0 mi SSW 5.8 mph - N/A   Clear
11:54 PM 64.9 °F 53.1 °F 65% 30.14 in 10.0 mi SW 6.9 mph - N/A   Clear